Left ArrowRight Arrow

38.20091, -84.87328

Hourly Observations for June 21, 2024

Temp ( °F °C ) Dew Point ( °F °C ) Humidity (%) Winds ( mph kmh ) Pressure ( in mb ) Visibility ( mi km ) Precip ( " mm )
12:53 am 00:53 Clear 73 22.8 69 20.6 87 87 Calm 30.23 1024 10 16 0.00 0.00
1:53 am 01:53 Clear 73 22.8 69 20.6 87 87 Calm 30.22 1023 10 16 0.00 0.00
2:53 am 02:53 Clear 71 21.7 68 20 90 90 Calm 30.21 1023 9 14 0.00 0.00
3:53 am 03:53 undefined N/A N/A N/A undefined N/A 30.27 1025 N/A 0.00 0.00
4:53 am 04:53 undefined N/A N/A N/A undefined N/A 30.27 1025 N/A 0.00 0.00
5:53 am 05:53 undefined N/A N/A N/A undefined N/A 30.28 1025 N/A 0.00 0.00
6:53 am 06:53 undefined N/A N/A N/A undefined N/A 30.30 1026 N/A 0.00 0.00
7:53 am 07:53 undefined N/A N/A N/A undefined N/A 30.31 1026 N/A 0.00 0.00
8:53 am 08:53 Sunny 81 27.2 71 21.7 72 72 Calm 30.24 1024 10 16 0.00 0.00
9:53 am 09:53 Sunny 86 30 68 20 55 55 NE 5 7 30.23 1024 10 16 0.00 0.00
10:53 am 10:53 Sunny 88 31.1 69 20.6 54 54 Calm 30.23 1024 10 16 0.00 0.00
11:53 am 11:53 Sunny 90 32.2 68 20 49 49 NNW 5 7 30.22 1023 10 16 0.00 0.00
12:53 pm 12:53 Sunny 91 32.8 68 20 47 47 VRB 5 7 30.21 1023 10 16 0.00 0.00
1:53 pm 13:53 Mostly Cloudy 92 33.3 67 19.4 44 44 VRB 5 7 30.19 1022 10 16 0.00 0.00
2:53 pm 14:53 Partly Cloudy 91 32.8 67 19.4 45 45 NNE 3 6 30.17 1022 10 16 0.00 0.00
3:53 pm 15:53 Sunny 93 33.9 67 19.4 43 43 NNW 9 15 30.11 1020 10 16 0.00 0.00
4:53 pm 16:53 Sunny 93 33.9 66 18.9 41 41 VRB 3 6 30.10 1019 10 16 0.00 0.00
5:53 pm 17:53 Sunny 94 34.4 67 19.4 41 41 undefined N/A 30.08 1019 10 16 0.00 0.00
6:53 pm 18:53 Sunny 93 33.9 65 18.3 40 40 VRB 3 6 30.07 1018 10 16 0.00 0.00
7:53 pm 19:53 Sunny 91 32.8 67 19.4 45 45 Calm 30.08 1019 10 16 0.00 0.00
8:53 pm 20:53 Sunny 84 28.9 70 21.1 63 63 Calm 30.10 1019 10 16 0.00 0.00
9:53 pm 21:53 Clear 80 26.7 70 21.1 71 71 Calm 30.10 1019 10 16 0.00 0.00
10:53 pm 22:53 Clear 78 25.6 70 21.1 76 76 Calm 30.10 1019 10 16 0.00 0.00
11:53 pm 23:53 Clear 76 24.4 70 21.1 82 82 Calm 30.10 1019 10 16 0.00 0.00

Powered by Vaisala Xweather